Retour au catalogue

ATLAS 28E DEB

ActifPO
NORAD 20565·DEBRIS·🇺🇸 United States

Lancé Apr 11, 1990 depuis Vandenberg Space Force Base

Loading…

Prochains Passages (prochaines 24 heures)

TLE

FraisSource: Space-Track

Époque: Sep 14, 2026, 05:26 UTC

1 20565U 90031F   26257.22666231  .00001216  00000-0  12279-3 0  9995
2 20565  89.9138 243.9256 0047579 261.8002  97.7829 14.89679721396879

Suivez ATLAS 28E DEB en temps réel avec AllMySat

Download on the App Store